Time,TemperatureF,DewpointF,PressureIn,WindDirection,WindDirectionDegrees,WindSpeedMPH,WindSpeedGustMPH,Humidity,HourlyPrecipIn,Conditions,Clouds,dailyrainin,SoftwareType,DateUTC
2013-03-02 00:04:00,12.5,11.0,30.24,West,273,0.0,1.0,93,0.00,,,0.00,weatherlink.com 1.10,2013-03-02 06:04:00,
2013-03-02 00:19:00,11.9,11.0,30.24,West,273,0.0,0.0,95,0.00,,,0.00,weatherlink.com 1.10,2013-03-02 06:19:00,
2013-03-02 00:34:00,12.1,11.0,30.25,SE,134,0.0,1.0,96,0.00,,,0.00,weatherlink.com 1.10,2013-03-02 06:34:00,
2013-03-02 00:49:00,11.9,11.0,30.25,SSE,148,0.0,0.0,95,0.00,,,0.00,weatherlink.com 1.10,2013-03-02 06:49:00,
2013-03-02 01:04:00,11.0,10.0,30.25,SSE,148,0.0,0.0,94,0.00,,,0.00,weatherlink.com 1.10,2013-03-02 07:04:00,
2013-03-02 01:19:00,10.5,9.0,30.25,SW,232,0.0,0.0,94,0.00,,,0.00,weatherlink.com 1.10,2013-03-02 07:19:00,
2013-03-02 01:34:00,10.4,9.0,30.25,SW,232,0.0,0.0,94,0.00,,,0.00,weatherlink.com 1.10,2013-03-02 07:34:00,
2013-03-02 01:49:00,9.4,8.0,30.25,ENE,71,0.0,0.0,94,0.00,,,0.00,weatherlink.com 1.10,2013-03-02 07:49:00,
2013-03-02 02:04:00,9.4,8.0,30.25,NNE,25,0.0,1.0,94,0.00,,,0.00,weatherlink.com 1.10,2013-03-02 08:04:00,
2013-03-02 02:19:00,9.2,8.0,30.25,NNE,25,0.0,1.0,94,0.00,,,0.00,weatherlink.com 1.10,2013-03-02 08:19:00,
2013-03-02 02:34:00,8.8,8.0,30.25,NNE,25,0.0,0.0,94,0.00,,,0.00,weatherlink.com 1.10,2013-03-02 08:34:00,
2013-03-02 02:50:00,8.7,7.0,30.25,NNE,25,0.0,0.0,94,0.00,,,0.00,weatherlink.com 1.10,2013-03-02 08:50:00,
2013-03-02 03:05:00,8.7,7.0,30.25,NNE,25,0.0,0.0,94,0.00,,,0.00,weatherlink.com 1.10,2013-03-02 09:05:00,
2013-03-02 03:20:00,8.8,8.0,30.25,East,92,0.0,1.0,95,0.00,,,0.00,weatherlink.com 1.10,2013-03-02 09:20:00,
2013-03-02 03:35:00,8.4,7.0,30.24,East,91,0.0,1.0,94,0.00,,,0.00,weatherlink.com 1.10,2013-03-02 09:35:00,
2013-03-02 03:50:00,9.2,8.0,30.24,West,278,0.0,1.0,96,0.00,,,0.00,weatherlink.com 1.10,2013-03-02 09:50:00,
2013-03-02 04:05:00,11.0,10.0,30.25,West,276,1.0,1.0,95,0.00,,,0.00,weatherlink.com 1.10,2013-03-02 10:05:00,
2013-03-02 04:20:00,10.8,9.0,30.25,West,276,0.0,0.0,93,0.00,,,0.00,weatherlink.com 1.10,2013-03-02 10:20:00,
2013-03-02 04:35:00,10.0,8.0,30.25,West,276,0.0,0.0,92,0.00,,,0.00,weatherlink.com 1.10,2013-03-02 10:35:00,
2013-03-02 04:50:00,10.5,9.0,30.25,West,276,0.0,0.0,93,0.00,,,0.00,weatherlink.com 1.10,2013-03-02 10:50:00,
2013-03-02 05:05:00,10.8,9.0,30.26,West,277,0.0,1.0,94,0.00,,,0.00,weatherlink.com 1.10,2013-03-02 11:05:00,
2013-03-02 05:20:00,11.1,9.0,30.26,West,266,0.0,1.0,91,0.00,,,0.00,weatherlink.com 1.10,2013-03-02 11:20:00,
2013-03-02 05:35:00,10.2,8.0,30.26,West,266,0.0,1.0,91,0.00,,,0.00,weatherlink.com 1.10,2013-03-02 11:35:00,
2013-03-02 05:50:00,9.8,8.0,30.26,NNW,348,0.0,1.0,92,0.00,,,0.00,weatherlink.com 1.10,2013-03-02 11:50:00,
2013-03-02 06:05:00,9.9,8.0,30.27,NW,322,0.0,1.0,92,0.00,,,0.00,weatherlink.com 1.10,2013-03-02 12:05:00,
2013-03-02 06:20:00,9.5,8.0,30.27,West,267,1.0,1.0,92,0.00,,,0.00,weatherlink.com 1.10,2013-03-02 12:20:00,
2013-03-02 06:35:00,9.8,8.0,30.28,NW,304,1.0,3.0,93,0.00,,,0.00,weatherlink.com 1.10,2013-03-02 12:35:00,
2013-03-02 06:50:00,10.0,8.0,30.28,West,274,0.0,2.0,92,0.00,,,0.00,weatherlink.com 1.10,2013-03-02 12:50:00,
2013-03-02 07:05:00,9.7,8.0,30.28,West,271,0.0,1.0,91,0.00,,,0.00,weatherlink.com 1.10,2013-03-02 13:05:00,
2013-03-02 07:20:00,10.1,8.0,30.28,West,271,0.0,0.0,91,0.00,,,0.00,weatherlink.com 1.10,2013-03-02 13:20:00,
2013-03-02 07:35:00,9.5,7.0,30.28,West,276,0.0,1.0,91,0.00,,,0.00,weatherlink.com 1.10,2013-03-02 13:35:00,
2013-03-02 07:50:00,9.4,7.0,30.28,West,270,0.0,1.0,91,0.00,,,0.00,weatherlink.com 1.10,2013-03-02 13:50:00,
2013-03-02 08:05:00,11.2,9.0,30.28,West,276,0.0,1.0,91,0.00,,,0.00,weatherlink.com 1.10,2013-03-02 14:05:00,
2013-03-02 08:20:00,13.1,10.0,30.28,West,278,1.0,2.0,88,0.00,,,0.00,weatherlink.com 1.10,2013-03-02 14:20:00,
2013-03-02 08:35:00,14.5,12.0,30.28,WNW,298,1.0,3.0,89,0.00,,,0.00,weatherlink.com 1.10,2013-03-02 14:35:00,
2013-03-02 08:50:00,17.1,13.0,30.28,NE,49,0.0,4.0,83,0.00,,,0.00,weatherlink.com 1.10,2013-03-02 14:50:00,
2013-03-02 09:05:00,17.3,12.0,30.28,North,355,1.0,6.0,81,0.00,,,0.00,weatherlink.com 1.10,2013-03-02 15:05:00,
2013-03-02 09:20:00,18.0,13.0,30.28,North,1,4.0,8.0,80,0.00,,,0.00,weatherlink.com 1.10,2013-03-02 15:20:00,
2013-03-02 09:35:00,19.1,13.0,30.28,ENE,58,3.0,6.0,78,0.00,,,0.00,weatherlink.com 1.10,2013-03-02 15:35:00,
2013-03-02 09:50:00,20.3,14.0,30.28,ENE,58,3.0,7.0,77,0.00,,,0.00,weatherlink.com 1.10,2013-03-02 15:50:00,
2013-03-02 10:05:00,21.0,14.0,30.28,NNW,333,2.0,9.0,75,0.00,,,0.00,weatherlink.com 1.10,2013-03-02 16:05:00,
2013-03-02 10:20:00,22.1,15.0,30.28,North,9,2.0,7.0,73,0.00,,,0.00,weatherlink.com 1.10,2013-03-02 16:20:00,
2013-03-02 10:35:00,22.4,15.0,30.28,NNW,335,4.0,8.0,73,0.00,,,0.00,weatherlink.com 1.10,2013-03-02 16:35:00,
2013-03-02 10:50:00,22.9,15.0,30.28,NNE,32,2.0,10.0,71,0.00,,,0.00,weatherlink.com 1.10,2013-03-02 16:50:00,
2013-03-02 11:05:00,23.7,16.0,30.27,NE,49,4.0,8.0,71,0.00,,,0.00,weatherlink.com 1.10,2013-03-02 17:05:00,
2013-03-02 11:20:00,24.1,15.0,30.27,North,1,2.0,9.0,69,0.00,,,0.00,weatherlink.com 1.10,2013-03-02 17:20:00,
2013-03-02 11:35:00,25.1,16.0,30.27,North,353,3.0,10.0,68,0.00,,,0.00,weatherlink.com 1.10,2013-03-02 17:35:00,
2013-03-02 11:50:00,25.0,15.0,30.27,NE,41,5.0,12.0,66,0.00,,,0.00,weatherlink.com 1.10,2013-03-02 17:50:00,
2013-03-02 12:06:00,25.2,16.0,30.26,NNE,23,5.0,11.0,67,0.00,,,0.00,weatherlink.com 1.10,2013-03-02 18:06:00,
2013-03-02 12:21:00,25.5,16.0,30.25,North,3,2.0,10.0,67,0.00,,,0.00,weatherlink.com 1.10,2013-03-02 18:21:00,
2013-03-02 12:36:00,26.7,16.0,30.25,NNE,30,5.0,10.0,64,0.00,,,0.00,weatherlink.com 1.10,2013-03-02 18:36:00,
2013-03-02 12:51:00,26.5,15.0,30.24,NNW,328,7.0,10.0,63,0.00,,,0.00,weatherlink.com 1.10,2013-03-02 18:51:00,
2013-03-02 13:06:00,27.5,17.0,30.24,NNW,342,6.0,7.0,64,0.00,,,0.00,weatherlink.com 1.10,2013-03-02 19:06:00,
2013-03-02 13:21:00,27.6,17.0,30.24,NW,315,3.0,11.0,64,0.00,,,0.00,weatherlink.com 1.10,2013-03-02 19:21:00,
2013-03-02 13:36:00,27.5,16.0,30.23,North,353,3.0,10.0,62,0.00,,,0.00,weatherlink.com 1.10,2013-03-02 19:36:00,
2013-03-02 13:51:00,28.0,16.0,30.23,NW,311,0.0,10.0,62,0.00,,,0.00,weatherlink.com 1.10,2013-03-02 19:51:00,
2013-03-02 14:06:00,28.2,17.0,30.22,West,276,4.0,11.0,62,0.00,,,0.00,weatherlink.com 1.10,2013-03-02 20:06:00,
2013-03-02 14:21:00,28.3,16.0,30.22,NW,311,5.0,7.0,60,0.00,,,0.00,weatherlink.com 1.10,2013-03-02 20:21:00,
2013-03-02 14:36:00,28.1,15.0,30.21,NNE,20,3.0,5.0,59,0.00,,,0.00,weatherlink.com 1.10,2013-03-02 20:36:00,
2013-03-02 14:51:00,28.8,16.0,30.21,NNW,333,0.0,6.0,59,0.00,,,0.00,weatherlink.com 1.10,2013-03-02 20:51:00,
2013-03-02 15:06:00,28.7,16.0,30.21,North,10,3.0,6.0,59,0.00,,,0.00,weatherlink.com 1.10,2013-03-02 21:06:00,
2013-03-02 15:21:00,28.9,15.0,30.21,NNE,32,3.0,7.0,56,0.00,,,0.00,weatherlink.com 1.10,2013-03-02 21:21:00,
2013-03-02 15:36:00,28.8,14.0,30.21,NE,40,3.0,9.0,54,0.00,,,0.00,weatherlink.com 1.10,2013-03-02 21:36:00,
2013-03-02 15:51:00,29.1,14.0,30.21,NNE,29,2.0,5.0,54,0.00,,,0.00,weatherlink.com 1.10,2013-03-02 21:51:00,
2013-03-02 16:06:00,29.2,14.0,30.21,North,354,0.0,4.0,53,0.00,,,0.00,weatherlink.com 1.10,2013-03-02 22:06:00,
2013-03-02 16:21:00,29.2,15.0,30.21,West,261,1.0,5.0,56,0.00,,,0.00,weatherlink.com 1.10,2013-03-02 22:21:00,
2013-03-02 16:36:00,29.3,15.0,30.21,NNW,335,4.0,6.0,56,0.00,,,0.00,weatherlink.com 1.10,2013-03-02 22:36:00,
2013-03-02 16:51:00,29.4,15.0,30.21,WNW,292,0.0,5.0,55,0.00,,,0.00,weatherlink.com 1.10,2013-03-02 22:51:00,
2013-03-02 17:06:00,29.6,14.0,30.21,West,269,1.0,4.0,53,0.00,,,0.00,weatherlink.com 1.10,2013-03-02 23:06:00,
2013-03-02 17:21:00,29.5,15.0,30.21,WNW,288,0.0,2.0,54,0.00,,,0.00,weatherlink.com 1.10,2013-03-02 23:21:00,
2013-03-02 17:51:00,27.5,14.0,30.22,NW,305,0.0,1.0,56,0.00,,,0.00,weatherlink.com 1.10,2013-03-02 23:51:00,
2013-03-02 18:06:00,26.1,13.0,30.22,NW,305,0.0,1.0,58,0.00,,,0.00,weatherlink.com 1.10,2013-03-03 00:06:00,
2013-03-02 18:21:00,24.5,13.0,30.22,NW,305,0.0,0.0,61,0.00,,,0.00,weatherlink.com 1.10,2013-03-03 00:21:00,
2013-03-02 18:36:00,22.4,13.0,30.22,NW,305,0.0,0.0,67,0.00,,,0.00,weatherlink.com 1.10,2013-03-03 00:36:00,
2013-03-02 18:51:00,21.4,14.0,30.21,NW,304,0.0,0.0,72,0.00,,,0.00,weatherlink.com 1.10,2013-03-03 00:51:00,
2013-03-02 19:06:00,20.4,13.0,30.22,SW,217,0.0,2.0,74,0.00,,,0.00,weatherlink.com 1.10,2013-03-03 01:06:00,
2013-03-02 19:21:00,19.6,13.0,30.21,SW,217,0.0,1.0,76,0.00,,,0.00,weatherlink.com 1.10,2013-03-03 01:21:00,
2013-03-02 19:36:00,18.7,13.0,30.22,SW,217,0.0,0.0,77,0.00,,,0.00,weatherlink.com 1.10,2013-03-03 01:36:00,
2013-03-02 19:51:00,17.3,12.0,30.22,SW,217,0.0,0.0,80,0.00,,,0.00,weatherlink.com 1.10,2013-03-03 01:51:00,
2013-03-02 20:06:00,16.7,12.0,30.21,East,89,0.0,0.0,81,0.00,,,0.00,weatherlink.com 1.10,2013-03-03 02:06:00,
2013-03-02 20:21:00,15.6,11.0,30.21,North,8,0.0,2.0,83,0.00,,,0.00,weatherlink.com 1.10,2013-03-03 02:21:00,
2013-03-02 20:36:00,15.0,10.0,30.22,North,8,0.0,1.0,81,0.00,,,0.00,weatherlink.com 1.10,2013-03-03 02:36:00,
2013-03-02 20:51:00,13.8,10.0,30.21,East,97,0.0,1.0,85,0.00,,,0.00,weatherlink.com 1.10,2013-03-03 02:51:00,
2013-03-02 21:06:00,13.7,10.0,30.22,ENE,78,0.0,1.0,85,0.00,,,0.00,weatherlink.com 1.10,2013-03-03 03:06:00,
2013-03-02 21:21:00,12.7,9.0,30.21,ENE,78,0.0,0.0,85,0.00,,,0.00,weatherlink.com 1.10,2013-03-03 03:21:00,
2013-03-02 21:36:00,11.7,9.0,30.22,NNE,30,1.0,1.0,87,0.00,,,0.00,weatherlink.com 1.10,2013-03-03 03:36:00,
2013-03-02 21:51:00,11.4,9.0,30.21,NNE,30,0.0,0.0,88,0.00,,,0.00,weatherlink.com 1.10,2013-03-03 03:51:00,
2013-03-02 22:06:00,11.0,8.0,30.21,NE,47,0.0,1.0,88,0.00,,,0.00,weatherlink.com 1.10,2013-03-03 04:06:00,
2013-03-02 22:21:00,10.2,7.0,30.21,NE,46,0.0,1.0,88,0.00,,,0.00,weatherlink.com 1.10,2013-03-03 04:21:00,
2013-03-02 22:36:00,9.9,7.0,30.21,NE,46,0.0,0.0,89,0.00,,,0.00,weatherlink.com 1.10,2013-03-03 04:36:00,
2013-03-02 22:51:00,9.1,7.0,30.20,NE,46,0.0,0.0,89,0.00,,,0.00,weatherlink.com 1.10,2013-03-03 04:51:00,
2013-03-02 23:06:00,8.7,6.0,30.20,NE,45,0.0,0.0,90,0.00,,,0.00,weatherlink.com 1.10,2013-03-03 05:06:00,
2013-03-02 23:21:00,8.3,6.0,30.20,NNE,13,1.0,1.0,90,0.00,,,0.00,weatherlink.com 1.10,2013-03-03 05:21:00,
2013-03-02 23:36:00,8.2,6.0,30.19,NNE,13,0.0,0.0,90,0.00,,,0.00,weatherlink.com 1.10,2013-03-03 05:36:00,
2013-03-02 23:51:00,8.1,6.0,30.19,NNE,13,0.0,1.0,90,0.00,,,0.00,weatherlink.com 1.10,2013-03-03 05:51:00,